User: anonymous   Login
Location: Unspecified
(0.0000°N, 0.0000°E)
Time: 02:13:13
(UTC+02:00)
Language:

ISS - Orbit

View from above orbital plane
View from above orbital plane
View from above satellite
View from above satellite

Ground track
Ground track

The orbit data is extracted from the following two-line orbital elements,

1 25544U 98067A   15239.87089066  .00012517  00000-0  18644-3 0  9996
2 25544 051.6452 086.1062 0001560 096.3058 030.7887 15.55509218959198
Epoch (UTC): 27 August 2015 20:54:04
Eccentricity: 0.0001560
inclination: 51.6452°
perigee height: 399 km
apogee height: 402 km
right ascension of ascending node: 86.1062°
argument of perigee: 96.3058°
revolutions per day: 15.55509218
mean anomaly at epoch: 30.7887°
orbit number at epoch: 95919

The dashed part of the orbit path shows where the satellite is in the earth's shadow,  

DLR